Natchitoches, LA

1:37 AM CDT on October 22, 2019 (GMT -0500)
Natchitoches Regional

Weather History for KIER - August, 2019

Change the Weather History Date:

Thursday, August 15, 2019

  Actual Average Record
Temperature  
Mean Temperature 85 °F -  
Max Temperature 96 °F 93 °F 106 °F (1951)
Min Temperature 74 °F 71 °F 57 °F (2004)
Cooling Degree Days 20    
Growing Degree Days 35 (Base 50)    
Moisture  
Dew Point 74 °F    
Average Humidity 73    
Maximum Humidity 99    
Minimum Humidity 43    
Precipitation  
Precipitation 0.00 in - - ()
Sea Level Pressure  
Sea Level Pressure 29.96 in    
Wind  
Wind Speed 3 mph (NNE)    
Max Wind Speed 9 mph    
Max Gust Speed -    
Visibility 9 miles    
Events      
Averages and records for this station are not official NWS values.
T = Trace of Precipitation, MM = Missing Value Source: NWS Daily Summary

Daily Weather History Graph

Daily Weather History Graph

Search for Another Location

Airport or City:

Astronomy

Aug. 15, 2019 Rise Set
Actual Time 6:37 AM CDT 7:56 PM CDT
Civil Twilight 6:11 AM CDT 8:21 PM CDT
Nautical Twilight 5:40 AM CDT 8:52 PM CDT
Astronomical Twilight 5:09 AM CDT 9:24 PM CDT
Moon 8:23 PM CDT (8/15) 6:35 AM CDT (8/15)
Length of Visible Light 14h 10m
Length of Day
13h 18m
Full, 100% of the Moon is Illuminated
Aug 15
Full
Aug 23
Last Quarter
Aug 30
New
Sep 5
First Quarter
Sep 13
Full

Hourly Weather History & Observations

Time (CDT) Temp. Heat Index Dew Point Humidity Pressure Visibility Wind Dir Wind Speed Gust Speed Precip Events Conditions
12:15 AM 75.6 °F - 74.8 °F 98% 29.98 in 10.0 mi West 3.5 mph - N/A   Clear
12:35 AM 75.6 °F - 74.7 °F 97% 29.98 in 10.0 mi NW 4.6 mph - N/A   Clear
12:55 AM 75.7 °F - 73.9 °F 94% 29.98 in 10.0 mi WNW 3.5 mph - N/A   Clear
1:15 AM 75.4 °F - 73.8 °F 95% 29.98 in 10.0 mi Calm Calm - N/A   Clear
1:35 AM 75.2 °F - 73.6 °F 95% 29.99 in 10.0 mi NW 3.5 mph - N/A   Mostly Cloudy
1:55 AM 75.7 °F - 74.3 °F 95% 29.98 in 10.0 mi NNW 4.6 mph - N/A   Scattered Clouds
2:15 AM 75.9 °F - 74.3 °F 95% 29.98 in 10.0 mi NNW 6.9 mph - N/A   Scattered Clouds
2:35 AM 76.1 °F - 74.8 °F 96% 29.97 in 7.0 mi North 5.8 mph - N/A   Mostly Cloudy
2:55 AM 76.1 °F - 75.4 °F 98% 29.97 in 5.0 mi NNW 3.5 mph - N/A   Overcast
3:15 AM 75.9 °F - 75.2 °F 98% 29.97 in 5.0 mi Calm Calm - N/A   Scattered Clouds
3:35 AM 75.6 °F - 75.0 °F 98% 29.97 in 5.0 mi Calm Calm - N/A   Scattered Clouds
3:55 AM 74.7 °F - 74.3 °F 99% 29.97 in 3.0 mi Calm Calm - N/A   Mostly Cloudy
4:15 AM 75.2 °F - 74.7 °F 98% 29.97 in 4.0 mi Calm Calm - N/A   Overcast
4:55 AM 75.4 °F - 75.2 °F 99% 29.97 in 5.0 mi Calm Calm - N/A   Overcast
5:15 AM 75.9 °F - 75.6 °F 99% 29.97 in 5.0 mi Calm Calm - N/A   Overcast
5:35 AM 75.9 °F - 75.4 °F 98% 29.97 in 4.0 mi Calm Calm - N/A   Mostly Cloudy
5:55 AM 76.1 °F - 75.6 °F 98% 29.98 in 3.0 mi Calm Calm - N/A   Scattered Clouds
6:15 AM 75.7 °F - 75.4 °F 99% 29.98 in 3.0 mi North 3.5 mph - N/A   Scattered Clouds
6:35 AM 75.6 °F - 75.2 °F 99% 29.98 in 2.0 mi North 4.6 mph - N/A   Overcast
6:55 AM 75.6 °F - 75.2 °F 99% 29.99 in 3.0 mi Calm Calm - N/A   Scattered Clouds
7:15 AM 76.1 °F - 75.6 °F 98% 29.99 in 5.0 mi Calm Calm - N/A   Clear
7:35 AM 78.1 °F - 76.1 °F 94% 29.99 in 7.0 mi Calm Calm - N/A   Clear
7:55 AM 80.6 °F 86.6 °F 76.1 °F 86% 30.00 in 10.0 mi Calm Calm - N/A   Clear
8:15 AM 81.9 °F 88.7 °F 75.4 °F 81% 30.00 in 10.0 mi ENE 3.5 mph - N/A   Clear
8:35 AM 82.4 °F 89.8 °F 75.6 °F 80% 30.00 in 10.0 mi ENE 5.8 mph - N/A   Clear
8:55 AM 83.5 °F 91.6 °F 75.6 °F 77% 30.00 in 10.0 mi ENE 5.8 mph - N/A   Clear
9:15 AM 84.7 °F 94.0 °F 76.1 °F 75% 30.00 in 10.0 mi ESE 3.5 mph - N/A   Clear
9:35 AM 85.1 °F 94.5 °F 75.9 °F 74% 30.00 in 10.0 mi East 5.8 mph - N/A   Clear
9:55 AM 86.7 °F 96.9 °F 75.7 °F 70% 30.00 in 10.0 mi Calm Calm - N/A   Clear
10:15 AM 89.1 °F 100.2 °F 76.1 °F 65% 30.00 in 10.0 mi NNE 3.5 mph - N/A   Clear
10:35 AM 89.1 °F 99.6 °F 75.4 °F 64% 30.01 in 10.0 mi East 5.8 mph - N/A   Clear
10:55 AM 90.9 °F 104.3 °F 77.2 °F 64% 30.01 in 10.0 mi NNE 3.5 mph - N/A   Clear
11:15 AM 91.0 °F 102.9 °F 76.1 °F 61% 30.01 in 10.0 mi North 3.5 mph - N/A   Clear
11:35 AM 92.1 °F 105.0 °F 76.3 °F 60% 30.01 in 10.0 mi Calm Calm - N/A   Scattered Clouds
11:55 AM 90.9 °F 103.0 °F 76.1 °F 62% 30.00 in 10.0 mi Calm Calm - N/A   Mostly Cloudy
12:15 PM 90.5 °F 101.5 °F 75.2 °F 61% 30.00 in 10.0 mi Calm Calm - N/A   Scattered Clouds
12:35 PM 91.4 °F 102.5 °F 75.4 °F 59% 29.99 in 10.0 mi East 3.5 mph - N/A   Scattered Clouds
12:55 PM 94.1 °F 105.9 °F 75.0 °F 54% 29.98 in 10.0 mi North 6.9 mph - N/A   Scattered Clouds
1:15 PM 91.9 °F 102.6 °F 74.8 °F 57% 29.98 in 10.0 mi North 6.9 mph - N/A   Scattered Clouds
1:35 PM 94.6 °F 105.8 °F 74.7 °F 52% 29.98 in 10.0 mi NE 5.8 mph - N/A   Clear
2:15 PM 94.6 °F 105.1 °F 73.9 °F 51% 29.96 in 10.0 mi NNE 6.9 mph - N/A   Clear
2:35 PM 95.0 °F 104.5 °F 73.4 °F 49% 29.95 in 10.0 mi NNE 3.5 mph - N/A   Clear
2:55 PM 95.4 °F 106.1 °F 74.1 °F 50% 29.94 in 10.0 mi ENE 5.8 mph - N/A   Scattered Clouds
3:15 PM 95.5 °F 105.8 °F 73.8 °F 49% 29.93 in 10.0 mi NNE 5.8 mph - N/A   Clear
3:35 PM 95.9 °F 105.2 °F 72.5 °F 47% 29.93 in 10.0 mi North 5.8 mph - N/A   Clear
3:55 PM 95.4 °F 105.4 °F 73.2 °F 49% 29.92 in 10.0 mi NE 9.2 mph - N/A   Clear
4:15 PM 96.1 °F 105.6 °F 72.7 °F 47% 29.92 in 10.0 mi North 4.6 mph - N/A   Clear
4:35 PM 96.3 °F 105.3 °F 72.1 °F 46% 29.91 in 10.0 mi North 8.1 mph - N/A   Clear
4:55 PM 96.1 °F 104.9 °F 72.0 °F 46% 29.91 in 10.0 mi NNE 8.1 mph - N/A   Clear
5:15 PM 95.9 °F 103.8 °F 71.6 °F 45% 29.91 in 10.0 mi NNE 8.1 mph - N/A   Clear
5:35 PM 96.1 °F 103.5 °F 71.2 °F 44% 29.91 in 10.0 mi NE 8.1 mph - N/A   Clear
5:55 PM 95.5 °F 101.8 °F 70.0 °F 43% 29.91 in 10.0 mi North 9.2 mph - N/A   Clear
6:15 PM 95.4 °F 101.4 °F 69.4 °F 43% 29.91 in 10.0 mi NNE 9.2 mph - N/A   Clear
6:35 PM 95.0 °F 100.7 °F 69.6 °F 43% 29.91 in 10.0 mi NE 6.9 mph - N/A   Clear
6:55 PM 94.1 °F 100.6 °F 70.2 °F 46% 29.92 in 10.0 mi NNE 8.1 mph - N/A   Clear
7:15 PM 92.7 °F 98.3 °F 70.0 °F 47% 29.93 in 10.0 mi NE 5.8 mph - N/A   Clear
7:35 PM 91.0 °F 96.6 °F 70.2 °F 50% 29.93 in 10.0 mi NE 4.6 mph - N/A   Clear
7:55 PM 89.2 °F 94.9 °F 70.7 °F 54% 29.94 in 10.0 mi NE 3.5 mph - N/A   Clear
8:15 PM 88.0 °F 93.4 °F 70.5 °F 56% 29.94 in 10.0 mi NE 4.6 mph - N/A   Clear
8:35 PM 87.1 °F 92.8 °F 71.1 °F 59% 29.95 in 10.0 mi ENE 3.5 mph - N/A   Clear
8:55 PM 86.0 °F 91.8 °F 71.4 °F 62% 29.94 in 10.0 mi ENE 4.6 mph - N/A   Clear
9:15 PM 85.5 °F 91.1 °F 71.8 °F 63% 29.95 in 10.0 mi Calm Calm - N/A   Clear
9:35 PM 82.0 °F 87.4 °F 72.9 °F 74% 29.96 in 10.0 mi Calm Calm - N/A   Clear
9:55 PM 80.6 °F 85.0 °F 72.7 °F 77% 29.96 in 10.0 mi Calm Calm - N/A   Clear
10:15 PM 79.0 °F - 73.4 °F 83% 29.96 in 10.0 mi Calm Calm - N/A   Clear
10:35 PM 78.3 °F - 73.4 °F 85% 29.96 in 10.0 mi South 3.5 mph - N/A   Clear
10:55 PM 77.9 °F - 73.0 °F 85% 29.96 in 10.0 mi Calm Calm - N/A   Clear
11:15 PM 77.0 °F - 73.0 °F 88% 29.95 in 10.0 mi Calm Calm - N/A   Clear
11:35 PM 76.1 °F - 72.9 °F 90% 29.95 in 10.0 mi Calm Calm - N/A   Clear
11:55 PM 75.4 °F - 72.5 °F 91% 29.95 in 10.0 mi Calm Calm - N/A   Clear